| time (UTC) | temp C | wind direction | speed KPH | gust KPH | rain 1hr cm | rain 24hr cm | rain mn cm | humidity % | barometer mb |
| 20260508122502 | 13 | 148 | 9.7 | 20.9 | 0.00 | 0.08 | 0.00 | 66 | 1016.2 |
| 20260508122005 | 13 | 152 | 11.3 | 20.9 | 0.00 | 0.08 | 0.00 | 66 | 1016.2 |
| 20260508121516 | 13 | 136 | 14.5 | 19.3 | 0.00 | 0.08 | 0.00 | 65 | 1016.2 |
| 20260508121005 | 13 | 104 | 8.0 | 24.1 | 0.00 | 0.08 | 0.00 | 63 | 1016.2 |
| 20260508120504 | 13 | 127 | 16.1 | 24.1 | 0.00 | 0.08 | 0.00 | 64 | 1016.2 |
| 20260508120019 | 14 | 86 | 14.5 | 20.9 | 0.00 | 0.08 | 0.00 | 66 | 1016.2 |
| 20260508115505 | 14 | 133 | 8.0 | 24.1 | 0.00 | 0.08 | 0.00 | 62 | 1016.3 |
| 20260508115005 | 14 | 122 | 16.1 | 24.1 | 0.00 | 0.08 | 0.00 | 62 | 1016.3 |
| 20260508114525 | 13 | 92 | 6.4 | 27.4 | 0.00 | 0.08 | 0.00 | 62 | 1016.2 |
| 20260508114010 | 14 | 86 | 19.3 | 27.4 | 0.00 | 0.08 | 0.00 | 63 | 1016.3 |
| 20260508113508 | 15 | 97 | 17.7 | 27.4 | 0.00 | 0.08 | 0.00 | 61 | 1016.2 |
| 20260508113008 | 15 | 112 | 11.3 | 22.5 | 0.00 | 0.08 | 0.00 | 65 | 1016.2 |
| 20260508112507 | 14 | 96 | 11.3 | 22.5 | 0.00 | 0.08 | 0.00 | 62 | 1016.1 |
| 20260508112002 | 14 | 69 | 9.7 | 16.1 | 0.00 | 0.08 | 0.00 | 64 | 1016.2 |
| 20260508111508 | 13 | 96 | 9.7 | 16.1 | 0.00 | 0.08 | 0.00 | 65 | 1016.2 |
| 20260508111004 | 13 | 90 | 6.4 | 17.7 | 0.00 | 0.08 | 0.00 | 62 | 1016.2 |
| 20260508110504 | 13 | 129 | 6.4 | 17.7 | 0.00 | 0.08 | 0.00 | 65 | 1016.2 |
| 20260508110016 | 13 | 140 | 8.0 | 14.5 | 0.00 | 0.08 | 0.00 | 67 | 1016.2 |
| 20260508105503 | 13 | 72 | 8.0 | 12.9 | 0.00 | 0.08 | 0.00 | 65 | 1016.2 |
| 20260508105006 | 12 | 126 | 4.8 | 12.9 | 0.00 | 0.08 | 0.00 | 66 | 1016.2 |
| 20260508104518 | 12 | 92 | 8.0 | 17.7 | 0.00 | 0.08 | 0.00 | 68 | 1016.2 |
| 20260508104007 | 12 | 94 | 9.7 | 17.7 | 0.00 | 0.08 | 0.00 | 70 | 1016.2 |
| 20260508103505 | 12 | 119 | 3.2 | 8.0 | 0.00 | 0.08 | 0.00 | 70 | 1016.2 |
| 20260508103018 | 12 | 132 | 4.8 | 12.9 | 0.00 | 0.08 | 0.00 | 72 | 1016.3 |
| 20260508102512 | 12 | 146 | 4.8 | 12.9 | 0.00 | 0.08 | 0.00 | 71 | 1016.3 |
| 20260508102002 | 12 | 115 | 8.0 | 12.9 | 0.00 | 0.08 | 0.00 | 72 | 1016.3 |
| 20260508101514 | 12 | 93 | 1.6 | 4.8 | 0.00 | 0.08 | 0.00 | 74 | 1016.3 |
| 20260508101011 | 11 | 134 | 1.6 | 4.8 | 0.00 | 0.08 | 0.00 | 76 | 1016.3 |
| 20260508100505 | 11 | 167 | 0.0 | 4.8 | 0.00 | 0.08 | 0.00 | 76 | 1016.3 |
| 20260508100011 | 11 | 189 | 1.6 | 4.8 | 0.00 | 0.08 | 0.00 | 74 | 1016.3 |
| 20260508095506 | 11 | 121 | 1.6 | 3.2 | 0.00 | 0.08 | 0.00 | 77 | 1016.4 |
| 20260508095007 | 11 | 5 | 0.0 | 0.0 | 0.00 | 0.08 | 0.00 | 77 | 1016.4 |
| 20260508094509 | 11 | 333 | 0.0 | 0.0 | 0.00 | 0.08 | 0.00 | 78 | 1016.4 |
| 20260508094007 | 11 | 333 | 0.0 | 0.0 | 0.00 | 0.08 | 0.00 | 76 | 1016.4 |
| 20260508093507 | 11 | 333 | 0.0 | 0.0 | 0.00 | 0.08 | 0.00 | 77 | 1016.4 |
| 20260508093023 | 11 | 328 | 0.0 | 0.0 | 0.00 | 0.08 | 0.00 | 78 | 1016.3 |
| 20260508092504 | 11 | 328 | 0.0 | 0.0 | 0.00 | 0.08 | 0.00 | 78 | 1016.2 |
| 20260508092007 | 11 | 331 | 0.0 | 0.0 | 0.00 | 0.08 | 0.00 | 78 | 1016.3 |
| 20260508091523 | 11 | 335 | 0.0 | 0.0 | 0.00 | 0.08 | 0.00 | 78 | 1016.3 |
| 20260508091005 | 11 | 339 | 0.0 | 0.0 | 0.00 | 0.08 | 0.00 | 81 | 1016.3 |
| 20260508090507 | 11 | 323 | 0.0 | 0.0 | 0.00 | 0.08 | 0.00 | 80 | 1016.4 |
| 20260508090025 | 11 | 275 | 0.0 | 0.0 | 0.00 | 0.08 | 0.00 | 82 | 1016.4 |
| 20260508085510 | 11 | 275 | 0.0 | 0.0 | 0.00 | 0.08 | 0.00 | 82 | 1016.3 |
| 20260508085005 | 10 | 275 | 0.0 | 0.0 | 0.00 | 0.08 | 0.00 | 83 | 1016.3 |
| 20260508084512 | 10 | 275 | 0.0 | 0.0 | 0.00 | 0.08 | 0.00 | 83 | 1016.3 |
| 20260508084006 | 10 | 275 | 0.0 | 0.0 | 0.00 | 0.08 | 0.00 | 84 | 1016.3 |
| 20260508083506 | 10 | 275 | 0.0 | 0.0 | 0.00 | 0.08 | 0.00 | 85 | 1016.3 |
| 20260508083015 | 10 | 304 | 0.0 | 0.0 | 0.00 | 0.08 | 0.00 | 86 | 1016.3 |
| 20260508082510 | 9 | 304 | 0.0 | 0.0 | 0.00 | 0.08 | 0.00 | 87 | 1016.2 |
| 20260508082008 | 9 | 304 | 0.0 | 0.0 | 0.00 | 0.08 | 0.00 | 89 | 1016.2 |
| 20260508081516 | 8 | 304 | 0.0 | 0.0 | 0.00 | 0.08 | 0.00 | 92 | 1016.1 |
| 20260508081007 | 8 | 83 | 0.0 | 0.0 | 0.00 | 0.08 | 0.00 | 93 | 1016.1 |
| 20260508080507 | 8 | 92 | 0.0 | 0.0 | 0.00 | 0.08 | 0.00 | 93 | 1016.0 |
| 20260508080024 | 8 | 92 | 0.0 | 0.0 | 0.00 | 0.08 | 0.00 | 93 | 1016.0 |
| 20260508075506 | 8 | 92 | 0.0 | 0.0 | 0.00 | 0.08 | 0.00 | 94 | 1016.1 |
| 20260508075008 | 8 | 92 | 0.0 | 0.0 | 0.00 | 0.08 | 0.00 | 93 | 1016.1 |
| 20260508074526 | 7 | 147 | 0.0 | 0.0 | 0.00 | 0.08 | 0.00 | 94 | 1016.0 |
| 20260508074006 | 7 | 250 | 0.0 | 0.0 | 0.00 | 0.08 | 0.00 | 94 | 1016.0 |
| 20260508073506 | 7 | 250 | 0.0 | 0.0 | 0.00 | 0.08 | 0.00 | 94 | 1016.0 |
| 20260508073016 | 7 | 250 | 0.0 | 0.0 | 0.00 | 0.08 | 0.00 | 94 | 1015.9 |
| 20260508072508 | 7 | 250 | 0.0 | 0.0 | 0.00 | 0.08 | 0.00 | 94 | 1015.9 |
| 20260508072007 | 7 | 250 | 0.0 | 0.0 | 0.00 | 0.08 | 0.00 | 94 | 1016.0 |
| 20260508071518 | 7 | 250 | 0.0 | 0.0 | 0.00 | 0.08 | 0.00 | 95 | 1016.0 |
| 20260508071007 | 7 | 250 | 0.0 | 0.0 | 0.00 | 0.08 | 0.00 | 95 | 1015.9 |
| 20260508070507 | 6 | 250 | 0.0 | 0.0 | 0.00 | 0.08 | 0.00 | 95 | 1015.9 |
| 20260508070021 | 6 | 250 | 0.0 | 0.0 | 0.00 | 0.08 | 0.00 | 95 | 1015.8 |
| 20260508065509 | 6 | 250 | 0.0 | 0.0 | 0.00 | 0.08 | 0.00 | 95 | 1015.8 |
| 20260508065008 | 6 | 250 | 0.0 | 0.0 | 0.00 | 0.08 | 0.00 | 95 | 1015.8 |
| 20260508064544 | 6 | 250 | 0.0 | 0.0 | 0.00 | 0.08 | 0.00 | 96 | 1015.8 |
| 20260508064008 | 6 | 250 | 0.0 | 0.0 | 0.00 | 0.08 | 0.00 | 96 | 1015.7 |
| 20260508063510 | 6 | 250 | 0.0 | 0.0 | 0.00 | 0.08 | 0.00 | 96 | 1015.7 |
| 20260508063016 | 6 | 250 | 0.0 | 0.0 | 0.00 | 0.08 | 0.00 | 96 | 1015.6 |
| 20260508062510 | 6 | 250 | 0.0 | 0.0 | 0.00 | 0.08 | 0.00 | 96 | 1015.7 |
| 20260508062006 | 5 | 250 | 0.0 | 0.0 | 0.00 | 0.08 | 0.00 | 96 | 1015.6 |
| 20260508061518 | 5 | 250 | 0.0 | 0.0 | 0.00 | 0.08 | 0.00 | 96 | 1015.6 |
| 20260508061010 | 5 | 250 | 0.0 | 0.0 | 0.00 | 0.08 | 0.00 | 96 | 1015.6 |
| 20260508060508 | 5 | 250 | 0.0 | 0.0 | 0.00 | 0.08 | 0.00 | 96 | 1015.5 |
| 20260508060024 | 5 | 250 | 0.0 | 0.0 | 0.00 | 0.08 | 0.00 | 96 | 1015.4 |
| 20260508055506 | 5 | 250 | 0.0 | 0.0 | 0.00 | 0.08 | 0.00 | 96 | 1015.4 |
| 20260508055005 | 4 | 250 | 0.0 | 0.0 | 0.00 | 0.08 | 0.00 | 96 | 1015.3 |
| 20260508054543 | 4 | 250 | 0.0 | 0.0 | 0.00 | 0.08 | 0.00 | 96 | 1015.2 |
| 20260508054009 | 4 | 250 | 0.0 | 0.0 | 0.00 | 0.08 | 0.00 | 96 | 1015.1 |
| 20260508053505 | 4 | 250 | 0.0 | 0.0 | 0.00 | 0.08 | 0.00 | 96 | 1015.1 |
| 20260508053023 | 4 | 250 | 0.0 | 0.0 | 0.00 | 0.08 | 0.00 | 95 | 1015.1 |
| 20260508052511 | 4 | 250 | 0.0 | 0.0 | 0.00 | 0.08 | 0.00 | 96 | 1015.1 |
| 20260508052012 | 4 | 250 | 0.0 | 0.0 | 0.00 | 0.08 | 0.00 | 96 | 1015.0 |
| 20260508051525 | 4 | 250 | 0.0 | 0.0 | 0.00 | 0.08 | 0.00 | 96 | 1015.0 |
| 20260508051005 | 3 | 250 | 0.0 | 0.0 | 0.00 | 0.08 | 0.00 | 96 | 1015.0 |
| 20260508050505 | 3 | 250 | 0.0 | 0.0 | 0.00 | 0.08 | 0.00 | 95 | 1015.0 |
| 20260508050031 | 3 | 250 | 0.0 | 0.0 | 0.00 | 0.08 | 0.00 | 95 | 1014.9 |
| 20260508045506 | 3 | 250 | 0.0 | 0.0 | 0.00 | 0.08 | 0.00 | 95 | 1014.9 |
| 20260508045007 | 3 | 250 | 0.0 | 0.0 | 0.00 | 0.08 | 0.00 | 95 | 1015.0 |
| 20260508044526 | 3 | 250 | 0.0 | 0.0 | 0.00 | 0.08 | 0.00 | 95 | 1014.9 |
| 20260508044003 | 3 | 250 | 0.0 | 0.0 | 0.00 | 0.08 | 0.00 | 95 | 1014.9 |
| 20260508043505 | 3 | 250 | 0.0 | 0.0 | 0.00 | 0.08 | 0.00 | 95 | 1014.9 |
| 20260508043011 | 3 | 250 | 0.0 | 0.0 | 0.00 | 0.08 | 0.00 | 95 | 1014.9 |
| 20260508042504 | 3 | 250 | 0.0 | 0.0 | 0.00 | 0.08 | 0.00 | 95 | 1014.8 |
| 20260508042003 | 3 | 250 | 0.0 | 0.0 | 0.00 | 0.08 | 0.00 | 95 | 1014.8 |
| 20260508041507 | 3 | 250 | 0.0 | 0.0 | 0.00 | 0.08 | 0.00 | 95 | 1014.8 |
| 20260508041004 | 3 | 250 | 0.0 | 0.0 | 0.00 | 0.08 | 0.00 | 95 | 1014.8 |
| 20260508040505 | 3 | 250 | 0.0 | 0.0 | 0.00 | 0.08 | 0.00 | 95 | 1014.8 |
| 20260508040007 | 3 | 250 | 0.0 | 0.0 | 0.00 | 0.08 | 0.00 | 95 | 1014.8 |
| 20260508035508 | 3 | 250 | 0.0 | 0.0 | 0.00 | 0.08 | 0.00 | 95 | 1014.7 |
| 20260508035007 | 3 | 250 | 0.0 | 0.0 | 0.00 | 0.08 | 0.00 | 95 | 1014.8 |
| 20260508034509 | 3 | 250 | 0.0 | 0.0 | 0.00 | 0.08 | 0.00 | 95 | 1014.8 |
| 20260508034003 | 3 | 250 | 0.0 | 0.0 | 0.00 | 0.08 | 0.00 | 95 | 1014.8 |
| 20260508033502 | 3 | 250 | 0.0 | 0.0 | 0.00 | 0.08 | 0.00 | 95 | 1014.8 |
| 20260508033006 | 3 | 250 | 0.0 | 0.0 | 0.00 | 0.08 | 0.00 | 95 | 1014.8 |
| 20260508032503 | 2 | 250 | 0.0 | 0.0 | 0.00 | 0.08 | 0.00 | 95 | 1014.8 |
| 20260508032003 | 2 | 250 | 0.0 | 0.0 | 0.00 | 0.08 | 0.00 | 94 | 1014.9 |
| 20260508031511 | 2 | 250 | 0.0 | 0.0 | 0.00 | 0.08 | 0.00 | 94 | 1014.9 |
| 20260508031005 | 2 | 250 | 0.0 | 0.0 | 0.00 | 0.08 | 0.00 | 94 | 1014.9 |
| 20260508030505 | 2 | 250 | 0.0 | 0.0 | 0.00 | 0.08 | 0.00 | 93 | 1014.8 |
| 20260508030012 | 2 | 250 | 0.0 | 0.0 | 0.00 | 0.08 | 0.00 | 92 | 1014.8 |
| 20260508025504 | 2 | 250 | 0.0 | 0.0 | 0.00 | 0.08 | 0.00 | 92 | 1014.8 |
| 20260508025003 | 3 | 250 | 0.0 | 0.0 | 0.00 | 0.08 | 0.00 | 92 | 1014.8 |
| 20260508024513 | 3 | 250 | 0.0 | 0.0 | 0.00 | 0.08 | 0.00 | 94 | 1014.8 |
| 20260508024005 | 3 | 250 | 0.0 | 0.0 | 0.00 | 0.08 | 0.00 | 94 | 1014.8 |
| 20260508023503 | 3 | 250 | 0.0 | 0.0 | 0.00 | 0.08 | 0.00 | 94 | 1014.8 |
| 20260508023012 | 3 | 250 | 0.0 | 0.0 | 0.00 | 0.08 | 0.00 | 94 | 1014.8 |
| 20260508022506 | 3 | 250 | 0.0 | 0.0 | 0.00 | 0.08 | 0.00 | 94 | 1014.8 |
| 20260508022006 | 3 | 250 | 0.0 | 0.0 | 0.00 | 0.08 | 0.00 | 93 | 1014.8 |
| 20260508021504 | 3 | 250 | 0.0 | 0.0 | 0.00 | 0.08 | 0.00 | 92 | 1014.8 |
| 20260508021003 | 3 | 250 | 0.0 | 0.0 | 0.00 | 0.08 | 0.00 | 93 | 1014.9 |
| 20260508020503 | 3 | 250 | 0.0 | 0.0 | 0.00 | 0.08 | 0.00 | 94 | 1014.9 |
| 20260508020013 | 3 | 250 | 0.0 | 0.0 | 0.00 | 0.08 | 0.00 | 94 | 1014.8 |
| 20260508015503 | 3 | 250 | 0.0 | 0.0 | 0.00 | 0.08 | 0.00 | 93 | 1014.8 |
| 20260508015005 | 3 | 250 | 0.0 | 0.0 | 0.00 | 0.08 | 0.00 | 91 | 1014.8 |
| 20260508014513 | 3 | 250 | 0.0 | 0.0 | 0.00 | 0.08 | 0.00 | 90 | 1014.9 |
| 20260508014006 | 3 | 250 | 0.0 | 0.0 | 0.00 | 0.08 | 0.00 | 89 | 1014.9 |
| 20260508013503 | 3 | 250 | 0.0 | 0.0 | 0.00 | 0.08 | 0.00 | 90 | 1014.9 |
| 20260508013017 | 3 | 250 | 0.0 | 0.0 | 0.00 | 0.08 | 0.00 | 92 | 1014.9 |
| 20260508012511 | 4 | 250 | 0.0 | 0.0 | 0.00 | 0.08 | 0.00 | 92 | 1014.9 |
| 20260508012003 | 4 | 228 | 0.0 | 0.0 | 0.00 | 0.08 | 0.00 | 92 | 1014.9 |
| 20260508011519 | 4 | 229 | 0.0 | 0.0 | 0.00 | 0.08 | 0.00 | 91 | 1014.9 |
| 20260508011005 | 4 | 236 | 0.0 | 3.2 | 0.00 | 0.08 | 0.00 | 92 | 1014.9 |
| 20260508010503 | 4 | 239 | 0.0 | 3.2 | 0.00 | 0.08 | 0.00 | 92 | 1014.9 |
| 20260508010020 | 5 | 234 | 1.6 | 3.2 | 0.00 | 0.08 | 0.00 | 93 | 1014.8 |
| 20260508005502 | 5 | 224 | 1.6 | 3.2 | 0.00 | 0.08 | 0.00 | 93 | 1014.8 |
| 20260508005003 | 5 | 224 | 1.6 | 3.2 | 0.00 | 0.08 | 0.00 | 93 | 1014.8 |
| 20260508004508 | 5 | 234 | 1.6 | 3.2 | 0.00 | 0.08 | 0.00 | 94 | 1014.8 |
| 20260508004006 | 4 | 221 | 1.6 | 3.2 | 0.00 | 0.08 | 0.00 | 94 | 1014.9 |
| 20260508003506 | 4 | 218 | 1.6 | 4.8 | 0.00 | 0.08 | 0.00 | 95 | 1014.9 |
| 20260508003005 | 4 | 223 | 1.6 | 4.8 | 0.00 | 0.08 | 0.00 | 95 | 1015.0 |
| 20260508002504 | 3 | 207 | 1.6 | 3.2 | 0.00 | 0.08 | 0.00 | 95 | 1014.9 |
| 20260508002007 | 3 | 202 | 1.6 | 3.2 | 0.00 | 0.08 | 0.00 | 95 | 1014.9 |
| 20260508001527 | 3 | 202 | 1.6 | 3.2 | 0.00 | 0.08 | 0.00 | 94 | 1014.9 |
| 20260508001004 | 3 | 219 | 1.6 | 3.2 | 0.00 | 0.08 | 0.00 | 94 | 1015.0 |
| 20260508000506 | 3 | 188 | 0.0 | 3.2 | 0.00 | 0.08 | 0.00 | 94 | 1015.0 |
| 20260508000021 | 3 | 210 | 0.0 | 3.2 | 0.00 | 0.08 | 0.00 | 93 | 1015.1 |
| 20260507235511 | 3 | 223 | 0.0 | 3.2 | 0.00 | 0.08 | 0.00 | 92 | 1015.1 |
| 20260507235006 | 3 | 223 | 0.0 | 3.2 | 0.00 | 0.08 | 0.00 | 92 | 1015.1 |
| 20260507234518 | 3 | 223 | 0.0 | 3.2 | 0.00 | 0.08 | 0.00 | 94 | 1015.1 |
| 20260507234002 | 3 | 211 | 0.0 | 3.2 | 0.00 | 0.08 | 0.00 | 93 | 1015.1 |
| 20260507233504 | 3 | 234 | 0.0 | 3.2 | 0.00 | 0.08 | 0.00 | 93 | 1015.1 |
| 20260507233023 | 3 | 240 | 1.6 | 3.2 | 0.00 | 0.08 | 0.00 | 93 | 1015.2 |
| 20260507232507 | 3 | 224 | 0.0 | 0.0 | 0.00 | 0.08 | 0.00 | 92 | 1015.1 |
| 20260507232006 | 3 | 224 | 0.0 | 0.0 | 0.00 | 0.08 | 0.00 | 91 | 1015.1 |
| 20260507231512 | 3 | 240 | 0.0 | 0.0 | 0.00 | 0.08 | 0.00 | 92 | 1015.1 |
| 20260507231008 | 3 | 240 | 0.0 | 0.0 | 0.00 | 0.08 | 0.00 | 93 | 1015.2 |
| 20260507230508 | 3 | 245 | 0.0 | 0.0 | 0.00 | 0.08 | 0.00 | 93 | 1015.1 |
| 20260507230008 | 3 | 244 | 0.0 | 0.0 | 0.00 | 0.08 | 0.00 | 93 | 1015.1 |
| 20260507225508 | 3 | 231 | 0.0 | 0.0 | 0.00 | 0.08 | 0.08 | 92 | 1015.1 |
| 20260507225008 | 3 | 223 | 0.0 | 0.0 | 0.00 | 0.08 | 0.08 | 91 | 1015.2 |
| 20260507224528 | 3 | 233 | 0.0 | 0.0 | 0.00 | 0.08 | 0.08 | 90 | 1015.2 |
| 20260507224003 | 3 | 250 | 0.0 | 0.0 | 0.00 | 0.08 | 0.08 | 89 | 1015.2 |
| 20260507223503 | 4 | 250 | 0.0 | 0.0 | 0.00 | 0.08 | 0.08 | 91 | 1015.2 |
| 20260507223013 | 4 | 250 | 0.0 | 0.0 | 0.00 | 0.08 | 0.08 | 92 | 1015.2 |
| 20260507222507 | 4 | 238 | 0.0 | 0.0 | 0.00 | 0.08 | 0.08 | 92 | 1015.2 |
| 20260507222006 | 4 | 240 | 0.0 | 0.0 | 0.00 | 0.08 | 0.08 | 91 | 1015.1 |
| 20260507221517 | 4 | 244 | 0.0 | 0.0 | 0.00 | 0.08 | 0.08 | 90 | 1015.1 |
| 20260507221010 | 4 | 244 | 0.0 | 0.0 | 0.00 | 0.08 | 0.08 | 90 | 1015.2 |
| 20260507220510 | 5 | 244 | 0.0 | 0.0 | 0.00 | 0.08 | 0.08 | 90 | 1015.2 |
| 20260507220020 | 5 | 244 | 0.0 | 1.6 | 0.00 | 0.08 | 0.08 | 90 | 1015.1 |
| 20260507215506 | 5 | 244 | 0.0 | 3.2 | 0.00 | 0.08 | 0.08 | 90 | 1015.1 |
| 20260507215002 | 5 | 244 | 0.0 | 3.2 | 0.00 | 0.08 | 0.08 | 89 | 1015.0 |
| 20260507214525 | 5 | 244 | 0.0 | 3.2 | 0.00 | 0.08 | 0.08 | 89 | 1015.0 |
| 20260507214012 | 5 | 244 | 0.0 | 3.2 | 0.00 | 0.08 | 0.08 | 89 | 1015.0 |
| 20260507213510 | 5 | 298 | 1.6 | 3.2 | 0.00 | 0.08 | 0.08 | 89 | 1015.0 |
| 20260507213014 | 5 | 120 | 0.0 | 3.2 | 0.00 | 0.08 | 0.08 | 89 | 1015.0 |
| 20260507212506 | 5 | 120 | 0.0 | 0.0 | 0.00 | 0.08 | 0.08 | 89 | 1015.0 |
| 20260507212004 | 5 | 120 | 0.0 | 0.0 | 0.00 | 0.08 | 0.08 | 88 | 1014.9 |
| 20260507211512 | 5 | 120 | 0.0 | 0.0 | 0.00 | 0.08 | 0.08 | 87 | 1014.9 |
| 20260507211006 | 6 | 120 | 0.0 | 3.2 | 0.00 | 0.08 | 0.08 | 86 | 1014.9 |
| 20260507210504 | 6 | 120 | 0.0 | 3.2 | 0.00 | 0.08 | 0.08 | 85 | 1015.0 |
| 20260507210016 | 6 | 120 | 1.6 | 3.2 | 0.00 | 0.08 | 0.08 | 86 | 1014.9 |
| 20260507205504 | 6 | 258 | 1.6 | 3.2 | 0.00 | 0.08 | 0.08 | 87 | 1014.9 |
| 20260507205009 | 6 | 255 | 3.2 | 3.2 | 0.00 | 0.08 | 0.08 | 87 | 1014.8 |
| 20260507204525 | 6 | 215 | 1.6 | 4.8 | 0.00 | 0.08 | 0.08 | 87 | 1014.7 |
| 20260507204009 | 6 | 215 | 1.6 | 4.8 | 0.00 | 0.08 | 0.08 | 86 | 1014.6 |
| 20260507203509 | 6 | 240 | 3.2 | 4.8 | 0.00 | 0.08 | 0.08 | 86 | 1014.5 |
| 20260507203024 | 7 | 223 | 3.2 | 3.2 | 0.00 | 0.08 | 0.08 | 86 | 1014.4 |
| 20260507202507 | 7 | 215 | 0.0 | 0.0 | 0.00 | 0.08 | 0.08 | 86 | 1014.4 |
| 20260507202006 | 7 | 227 | 0.0 | 0.0 | 0.00 | 0.08 | 0.08 | 85 | 1014.4 |
| 20260507201522 | 7 | 211 | 0.0 | 3.2 | 0.00 | 0.08 | 0.08 | 84 | 1014.3 |
| 20260507201004 | 7 | 188 | 0.0 | 3.2 | 0.00 | 0.08 | 0.08 | 83 | 1014.3 |
| 20260507200503 | 7 | 150 | 0.0 | 1.6 | 0.00 | 0.08 | 0.08 | 83 | 1014.4 |
| 20260507200015 | 8 | 251 | 0.0 | 0.0 | 0.00 | 0.08 | 0.08 | 82 | 1014.3 |
| 20260507195505 | 8 | 251 | 0.0 | 0.0 | 0.00 | 0.08 | 0.08 | 81 | 1014.3 |
| 20260507195007 | 8 | 251 | 0.0 | 0.0 | 0.00 | 0.08 | 0.08 | 80 | 1014.3 |
| 20260507194513 | 8 | 251 | 0.0 | 3.2 | 0.00 | 0.08 | 0.08 | 80 | 1014.3 |
| 20260507194005 | 9 | 251 | 0.0 | 3.2 | 0.00 | 0.08 | 0.08 | 78 | 1014.2 |
| 20260507193509 | 9 | 251 | 0.0 | 3.2 | 0.00 | 0.08 | 0.08 | 78 | 1014.2 |
| 20260507193023 | 10 | 240 | 0.0 | 4.8 | 0.00 | 0.08 | 0.08 | 78 | 1014.1 |
| 20260507192509 | 10 | 240 | 1.6 | 4.8 | 0.00 | 0.08 | 0.08 | 78 | 1014.2 |
| 20260507192010 | 10 | 215 | 0.0 | 3.2 | 0.00 | 0.08 | 0.08 | 79 | 1014.2 |
| 20260507191528 | 10 | 227 | 1.6 | 3.2 | 0.00 | 0.08 | 0.08 | 80 | 1014.2 |
| 20260507191003 | 10 | 233 | 0.0 | 3.2 | 0.00 | 0.08 | 0.08 | 81 | 1014.2 |
| 20260507190509 | 10 | 229 | 0.0 | 3.2 | 0.00 | 0.08 | 0.08 | 81 | 1014.1 |
| 20260507190024 | 10 | 229 | 0.0 | 3.2 | 0.00 | 0.08 | 0.08 | 82 | 1014.1 |
| 20260507185503 | 10 | 233 | 0.0 | 3.2 | 0.00 | 0.08 | 0.08 | 82 | 1014.0 |
| 20260507185008 | 10 | 223 | 0.0 | 0.0 | 0.00 | 0.08 | 0.08 | 84 | 1014.0 |
| 20260507184518 | 10 | 234 | 0.0 | 0.0 | 0.00 | 0.08 | 0.08 | 84 | 1014.0 |
| 20260507184006 | 10 | 234 | 0.0 | 0.0 | 0.00 | 0.08 | 0.08 | 82 | 1014.0 |
| 20260507183502 | 10 | 227 | 0.0 | 0.0 | 0.00 | 0.08 | 0.08 | 81 | 1014.0 |
| 20260507183018 | 10 | 228 | 0.0 | 3.2 | 0.00 | 0.08 | 0.08 | 80 | 1013.9 |
| 20260507182509 | 10 | 228 | 0.0 | 3.2 | 0.00 | 0.08 | 0.08 | 80 | 1013.9 |
| 20260507182011 | 10 | 228 | 0.0 | 4.8 | 0.00 | 0.08 | 0.08 | 80 | 1013.9 |
| 20260507181517 | 10 | 213 | 0.0 | 11.3 | 0.00 | 0.08 | 0.08 | 79 | 1014.0 |
| 20260507181012 | 11 | 240 | 3.2 | 11.3 | 0.00 | 0.08 | 0.08 | 78 | 1013.9 |
| 20260507180509 | 11 | 217 | 1.6 | 6.4 | 0.00 | 0.08 | 0.08 | 79 | 1013.9 |
| 20260507180026 | 11 | 208 | 3.2 | 6.4 | 0.00 | 0.08 | 0.08 | 80 | 1013.8 |
| 20260507175511 | 11 | 198 | 1.6 | 6.4 | 0.00 | 0.08 | 0.08 | 83 | 1013.8 |
| 20260507175009 | 11 | 181 | 0.0 | 4.8 | 0.00 | 0.08 | 0.08 | 85 | 1013.7 |
| 20260507174543 | 11 | 155 | 1.6 | 4.8 | 0.00 | 0.08 | 0.08 | 86 | 1013.7 |
| 20260507174007 | 10 | 157 | 1.6 | 4.8 | 0.00 | 0.08 | 0.08 | 86 | 1013.7 |
| 20260507173511 | 10 | 192 | 3.2 | 4.8 | 0.00 | 0.08 | 0.08 | 86 | 1013.7 |
| 20260507173023 | 10 | 219 | 0.0 | 0.0 | 0.00 | 0.08 | 0.08 | 86 | 1013.8 |
| 20260507172506 | 10 | 200 | 0.0 | 0.0 | 0.00 | 0.08 | 0.08 | 86 | 1013.6 |
| 20260507172010 | 10 | 180 | 0.0 | 0.0 | 0.00 | 0.08 | 0.08 | 86 | 1013.7 |
| 20260507171530 | 10 | 175 | 0.0 | 0.0 | 0.03 | 0.08 | 0.08 | 86 | 1013.8 |
| 20260507171009 | 10 | 153 | 0.0 | 0.0 | 0.08 | 0.08 | 0.08 | 86 | 1013.8 |
| 20260507170506 | 10 | 128 | 0.0 | 0.0 | 0.08 | 0.08 | 0.08 | 85 | 1013.8 |
| 20260507170025 | 10 | 124 | 0.0 | 0.0 | 0.08 | 0.08 | 0.08 | 84 | 1013.8 |
| 20260507165516 | 10 | 239 | 0.0 | 0.0 | 0.08 | 0.08 | 0.08 | 85 | 1013.8 |
| 20260507165012 | 10 | 239 | 0.0 | 3.2 | 0.08 | 0.08 | 0.08 | 85 | 1013.9 |
| 20260507164524 | 10 | 246 | 0.0 | 3.2 | 0.08 | 0.08 | 0.08 | 85 | 1014.0 |
| 20260507164009 | 10 | 232 | 0.0 | 3.2 | 0.08 | 0.08 | 0.08 | 86 | 1014.0 |
| 20260507163511 | 10 | 256 | 0.0 | 3.2 | 0.08 | 0.08 | 0.08 | 86 | 1014.0 |
| 20260507163020 | 10 | 249 | 0.0 | 6.4 | 0.08 | 0.08 | 0.08 | 83 | 1014.0 |
| 20260507162506 | 10 | 222 | 0.0 | 9.7 | 0.08 | 0.08 | 0.08 | 82 | 1013.9 |
| 20260507162008 | 10 | 214 | 3.2 | 14.5 | 0.08 | 0.08 | 0.08 | 81 | 1014.0 |
| 20260507161522 | 10 | 225 | 6.4 | 12.9 | 0.05 | 0.05 | 0.05 | 79 | 1014.0 |
| 20260507161010 | 11 | 213 | 4.8 | 16.1 | 0.00 | 0.00 | 0.00 | 75 | 1013.9 |
| 20260507160507 | 11 | 233 | 3.2 | 16.1 | 0.00 | 0.00 | 0.00 | 72 | 1013.7 |
| 20260507160024 | 11 | 196 | 8.0 | 19.3 | 0.00 | 0.00 | 0.00 | 71 | 1013.6 |
| 20260507155506 | 11 | 218 | 8.0 | 17.7 | 0.00 | 0.00 | 0.00 | 70 | 1013.6 |
| 20260507155010 | 11 | 195 | 6.4 | 22.5 | 0.00 | 0.00 | 0.00 | 72 | 1013.6 |
| 20260507154528 | 11 | 176 | 14.5 | 22.5 | 0.00 | 0.00 | 0.00 | 71 | 1013.6 |
| 20260507154010 | 11 | 166 | 14.5 | 22.5 | 0.00 | 0.00 | 0.00 | 70 | 1013.6 |
| 20260507153505 | 11 | 196 | 8.0 | 17.7 | 0.00 | 0.00 | 0.00 | 70 | 1013.6 |
| 20260507153029 | 12 | 178 | 8.0 | 20.9 | 0.00 | 0.00 | 0.00 | 70 | 1013.6 |
| 20260507152508 | 12 | 178 | 14.5 | 20.9 | 0.00 | 0.00 | 0.00 | 68 | 1013.6 |
| 20260507152008 | 12 | 159 | 8.0 | 20.9 | 0.00 | 0.00 | 0.00 | 68 | 1013.7 |
| 20260507151518 | 12 | 162 | 12.9 | 25.7 | 0.00 | 0.00 | 0.00 | 70 | 1013.7 |
| 20260507151007 | 12 | 176 | 9.7 | 27.4 | 0.00 | 0.00 | 0.00 | 69 | 1013.6 |
| 20260507150506 | 12 | 198 | 16.1 | 27.4 | 0.00 | 0.00 | 0.00 | 68 | 1013.6 |
| 20260507150023 | 12 | 173 | 14.5 | 27.4 | 0.00 | 0.00 | 0.00 | 69 | 1013.6 |
| 20260507145507 | 12 | 176 | 14.5 | 24.1 | 0.00 | 0.00 | 0.00 | 69 | 1013.7 |
| 20260507145016 | 12 | 169 | 14.5 | 17.7 | 0.00 | 0.00 | 0.00 | 68 | 1013.7 |
| 20260507144521 | 12 | 159 | 11.3 | 19.3 | 0.00 | 0.00 | 0.00 | 69 | 1013.7 |
| 20260507144010 | 12 | 181 | 11.3 | 19.3 | 0.00 | 0.00 | 0.00 | 69 | 1013.8 |
| 20260507143508 | 12 | 194 | 12.9 | 19.3 | 0.00 | 0.00 | 0.00 | 70 | 1013.9 |
| 20260507143027 | 11 | 183 | 11.3 | 19.3 | 0.00 | 0.00 | 0.00 | 69 | 1013.9 |
| 20260507142508 | 11 | 170 | 11.3 | 19.3 | 0.00 | 0.00 | 0.00 | 69 | 1014.0 |
| 20260507142009 | 11 | 192 | 9.7 | 19.3 | 0.00 | 0.00 | 0.00 | 67 | 1014.0 |
| 20260507141530 | 11 | 160 | 9.7 | 17.7 | 0.00 | 0.00 | 0.00 | 67 | 1013.9 |
| 20260507141013 | 11 | 135 | 8.0 | 14.5 | 0.00 | 0.00 | 0.00 | 68 | 1013.9 |
| 20260507140509 | 11 | 161 | 6.4 | 14.5 | 0.00 | 0.00 | 0.00 | 68 | 1014.0 |
| 20260507140035 | 11 | 183 | 9.7 | 17.7 | 0.00 | 0.00 | 0.00 | 67 | 1014.0 |
| 20260507135508 | 12 | 186 | 11.3 | 19.3 | 0.00 | 0.00 | 0.00 | 65 | 1014.0 |
| 20260507135011 | 12 | 174 | 11.3 | 19.3 | 0.00 | 0.00 | 0.00 | 66 | 1014.0 |
| 20260507134524 | 12 | 188 | 11.3 | 24.1 | 0.00 | 0.00 | 0.00 | 66 | 1014.0 |
| 20260507134009 | 12 | 180 | 11.3 | 22.5 | 0.00 | 0.00 | 0.00 | 65 | 1014.0 |
| 20260507133509 | 12 | 192 | 9.7 | 20.9 | 0.00 | 0.00 | 0.00 | 65 | 1014.1 |
| 20260507133024 | 12 | 180 | 16.1 | 20.9 | 0.00 | 0.00 | 0.00 | 63 | 1014.1 |
| 20260507132509 | 13 | 171 | 14.5 | 20.9 | 0.00 | 0.00 | 0.00 | 62 | 1014.2 |
| 20260507132013 | 13 | 215 | 12.9 | 30.6 | 0.00 | 0.00 | 0.00 | 63 | 1014.1 |
| 20260507131541 | 13 | 178 | 14.5 | 30.6 | 0.00 | 0.00 | 0.00 | 62 | 1014.1 |
| 20260507131010 | 13 | 169 | 14.5 | 29.0 | 0.00 | 0.00 | 0.00 | 62 | 1014.1 |
| 20260507130508 | 13 | 173 | 9.7 | 25.7 | 0.00 | 0.00 | 0.00 | 59 | 1014.1 |
| 20260507130030 | 13 | 174 | 11.3 | 27.4 | 0.00 | 0.00 | 0.00 | 60 | 1013.9 |
| 20260507125509 | 13 | 213 | 12.9 | 29.0 | 0.00 | 0.00 | 0.00 | 63 | 1014.0 |
| 20260507125005 | 13 | 209 | 20.9 | 29.0 | 0.00 | 0.00 | 0.00 | 60 | 1013.9 |
| 20260507124524 | 13 | 164 | 19.3 | 30.6 | 0.00 | 0.00 | 0.00 | 63 | 1014.0 |
| 20260507124010 | 13 | 177 | 17.7 | 30.6 | 0.00 | 0.00 | 0.00 | 66 | 1014.0 |
| 20260507123510 | 12 | 180 | 16.1 | 27.4 | 0.00 | 0.00 | 0.00 | 65 | 1014.1 |
| 20260507123033 | 12 | 190 | 14.5 | 29.0 | 0.00 | 0.00 | 0.00 | 67 | 1014.1 |